Погода в Барде

Погода в Барде : погода сейчас, прогноз погоды и архив. Всё, что Вы хотите узнать о погоде в Барде!

Поиск расширенной информации на нашем сайте:

Другие новости

Новости СМИ2

Главная страница сайта

Новости сайта

02.10.2013

Напоминаем, что на нашем новом сайте вы можете получить высокодетализированные прогнозы погоды по пунктам России, СНГ и мира (включающие важные для авиации метеовеличины, такие как направление и скорость ветра, видимость, явления погоды, количество и форма облачности, нижняя и верхняя граница облачности), а также ознакомиться с разнообразными материалами по авиационной метеорологии и подборкой полезных ссылок на эту тему.

Сайт Метеоцентр.Азия посвящён разработке технологий оптимизации авиаметеорологического обслуживания, включая проектирование и перспективное создание нескольких автоматизированных авиаметеорологических систем:
- система выпуска высокодетальных прогностических карт явлений погоды для нижнего воздушного пространства по России и ближнему зарубежью;
- система верификации прогнозов TAF (выпускаемых синоптиками официальных АМСГ РФ и ближнего зарубежья) и AUTOTAF (выпускаемых сайтом Метеоцентр.Азия) - выявление ошибок, онлайн-сопоставление с фактической погодой METAR, автоматическое внесение коррективов в прогнозы при резком отклонении фактической погоды от прогноза, подсчёт оправдываемости прогнозов по элементам и в целом;
- система обработки, анализа и отображения авиаметеорологической информации для применения провайдерами метеорологической информации.


Погода в Барде - сегодня

Время (UTC), дата Ветер
(°,м/с) 
Видим.   Явления Облачность Т
(°С)
Тd
(°С)
f(%) Тe
(°С)
Pmin
(гПа)
dP
(гПа)
Po
(мм)
O2
(г/м3)
Тmin Tmax R s Состояние
почвы
00 24.04.17 300 (СЗ) 5{22}  10 км    3/3 600 м 
[Cu med, cong]
+14.9 +6.7 58 +14  1007.2  -1.3  749  285           
03 24.04.17 300 (СЗ) 5-20  20000 м    3/3 600 м 
[Cu med, cong]
+13.4 +4.3 54 +13  1008.1  0.9  750  287           
06 24.04.17 300 (СЗ) 6-26  20000 м    3/3 600 м 
[Cu med, cong]
+3 100 -3  1009.5  1.5  751  302           
09 24.04.17 300 (СЗ) 4-20  20000 м    8/8 600 м 
[Cu med, cong]
+1.5 +6.4 100 -1  1010.1  0.7  752  300           
12 24.04.17 300 (СЗ) 20000 м  в посл. час гроза{ливн. осадки}  8/8 600 м 
[Cu med, cong]
+17.7 +8.6 55 +19  1012  1.8  753  283           
15 24.04.17 290 (З) 20000 м    9/9 600 м 
[Cu med, cong]
+15.1 +9.5 69 +16  1015  755  287         
18 24.04.17 180 (Ю) 10 км    9/9 600 м 
[Cu med, cong]
+14.3 +8.1 66 +16  1018  3.2  758  289    +22       
21 24.04.17 120 (ЮВ) 10 км    9/9 600 м 
[Cu med, cong]
+11.3 +8 80 +12  1019.9  1.5  759  292           
00 25.04.17 360 (С) 10 км    9/9 600 м 
[Cu med, cong]
+11.9 +7.4 74 +13  1019.3  -0.7  758  291           
03 25.04.17 300 (СЗ) 20000 м    5/5 600 м 
[Cu med, cong]
+10.3 +2.1 57 +10  1020.7  1.5  759  294           
06 25.04.17 300 (СЗ) 20000 м    9/9 600 м 
[Cu med, cong]
+13.4 +3.6 51 +13  1022.3  1.6  760  292           
09 25.04.17 320 (СЗ) 20000 м    8/8 600 м 
[Cu med, cong]
+17.3 +7.1 51 +19  1021.7  -0.4  760  287           
12 25.04.17 320 (СЗ) 20000 м    8/8 600 м 
[Cu med, cong]
+17.7 +4.8 42 +19  1023.1  1.4  761  287           
15 25.04.17 тихо ()   20000 м    9/9 600 м 
[Cu med, cong]
+15.5 +7.4 58 +16  1024.6  1.5  762  289           
18 25.04.17 180 (Ю) 10 км    9/9 600 м 
[Cu med, cong]
+13.3 +7.8 69 +14  1027.8  3.1  765  292    +18.3       
21 25.04.17 180 (Ю) 10 км    9/9 600 м 
[Cu med, cong]
+10.9 +6.8 76 +11  1029.8  766  296           
00 26.04.17 180 (Ю) 10 км    9/9 600 м 
[Cu med, cong]
+10.1 +6.5 78 +10  1031.1  1.2  767  297           
03 26.04.17 тихо ()   20000 м    9/9 600 м 
[Cu med, cong]
+9.4 +6.8 84 +9  1032.5  1.4  768  298           
06 26.04.17 тихо ()   20000 м    9/9 600 м 
[Cu med, cong]
+10.7 +6.7 76 +11  1035.2  2.6  770  298           
09 26.04.17 180 (Ю) 20000 м    9/9 600 м 
[Cu med, cong]
+14.5 +4.6 51 +15  1036.4  1.3  771  294           
12 26.04.17 180 (Ю) 20000 м    9/9 600 м 
[Cu med, cong]
+16.7 +4.1 43 +18  1034.8  -1.4  770  292           
15 26.04.17 180 (Ю) 20000 м    9/9 600 м 
[Cu med, cong]
+14.5 +5 53 +15  1034.6  -0.2  770  294           
21 26.04.17 тихо ()   10 км    8/8 600 м 
[Cu med, cong]
+10 +7.6 85 +10  1033.7  -0.4  769  298           
00 27.04.17 тихо ()   10 км    8/8 600 м 
[Cu med, cong]
+8.9 +7 88 +9  1033.2  -0.5  769  299           
03 27.04.17 100 (В) 20000 м    8/8 600 м 
[Cu med, cong]
+7 +5.6 91 +8  1033.2  769  301           
Время (UTC), дата Ветер
(°,м/с) 
Видим.   Явления Облачность Т
(°С)
Тd
(°С)
f(%) Тe
(°С)
Pmin
(гПа)
dP
(гПа)
Po
(мм)
O2
(г/м3)
Тmin Tmax R s Состояние
почвы

Для получения пояснительной информации подведите курсор к названию столбца.

ПОГОДА в Барде - архив

Всё, что Вы хотите узнать о погоде в Барде - удобно и подробно!

Выберите нужную дату (начиная с 1 января 2015* года) и нажмите кнопку "Найти".
Будут отображены архивные сводки погоды по пункту Барда, начиная с указанной даты.


Отображать данные в формате CSV (для использования в таблицах Excel)


Внимание! Наш архив погоды предназначен исключительно для личного некоммерческого использования в познавательных целях. Если Вам необходимы официальные справки о состоянии погоды (для производственных, юридических, коммерческих и т.п. целей), обращайтесь в органы Росгидромета.

*Примечание: данная дата относится к архиву по метеостанциям СССР (Россия, СНГ, Балтия).
Архив по метеостанциям Зарубежной Европы и Азии (кроме Китая) хранится 10 дней, по другим регионам земного шара (Китай, Африка, Америка, Австралия, Океания) - 1 день.

Барда - район местоположения метеостанции


Название, широта, долгота, высота метеостанции:
Барда 40.4°ш. 47.1°д. 69 м над ур. моря [Азербайджан]

Дополнительная информация

В oтличие oт бoльшинства пoгoдных сайтoв мы публикуем пoдрoбную метеoинфoрмацию в детальнoм прoфессиoнальнoм фoрмате.

Характеристики температуры и влажнoсти вoздуха измеряются на высoте 2 м в тени вдали oт зданий и деревьев.
Скoрoсть ветра измеряется на высoте 10 м (на урoвне рoста челoвека скoрoсть ветра ниже в 1.5-2 раза). Если метеoстанция нахoдится в гoрoде или в лесу, тo скoрoсть ветра занижена на 2-4 м/с пo сравнению с oткрытым местoм. Скoрoсть ветра над акватoриями крупных рек и oзёр, а также на вершинах хoлмoв на 2-5 м/с выше, чем в oбычных услoвиях.
Атмoсфернoе давление в разных тoчках местнoсти мoжет значительнo oтличаться oт давления на метеoстанции, в зависимoсти oт услoвий рельефа (при пoдъёме на 10 м давление пoнижается примернo на 1 мм рт.ст.).